| time (UTC) | temp F | wind direction | speed knots | gust knots | rain 1hr in | rain 24hr in | rain mn in | humidity % | barometer mb |
| 20260509065156 | 89 | 146 | 1.7 | 3.5 | 0.00 | 0.00 | 0.46 | 75 | 1008.5 |
| 20260509064656 | 89 | 104 | 2.6 | 5.2 | 0.00 | 0.00 | 0.46 | 74 | 1008.7 |
| 20260509064156 | 89 | 109 | 3.5 | 8.7 | 0.00 | 0.00 | 0.46 | 75 | 1008.7 |
| 20260509063656 | 89 | 84 | 2.6 | 5.2 | 0.00 | 0.00 | 0.46 | 75 | 1008.7 |
| 20260509063156 | 88 | 97 | 3.5 | 5.2 | 0.00 | 0.00 | 0.46 | 77 | 1008.8 |
| 20260509062657 | 88 | 217 | 1.7 | 5.2 | 0.00 | 0.00 | 0.46 | 78 | 1008.8 |
| 20260509062156 | 88 | 87 | 3.5 | 7.0 | 0.00 | 0.00 | 0.46 | 77 | 1008.8 |
| 20260509061656 | 88 | 89 | 2.6 | 4.3 | 0.00 | 0.00 | 0.46 | 79 | 1008.9 |
| 20260509061156 | 88 | 116 | 3.5 | 4.3 | 0.00 | 0.00 | 0.46 | 78 | 1009.0 |
| 20260509060656 | 87 | 69 | 2.6 | 3.5 | 0.00 | 0.00 | 0.46 | 77 | 1009.1 |
| 20260509060156 | 87 | 100 | 2.6 | 5.2 | 0.00 | 0.00 | 0.46 | 78 | 1009.3 |
| 20260509055656 | 87 | 38 | 1.7 | 3.5 | 0.00 | 0.00 | 0.46 | 78 | 1009.4 |
| 20260509055157 | 87 | 71 | 1.7 | 2.6 | 0.00 | 0.00 | 0.46 | 78 | 1009.4 |
| 20260509054656 | 87 | 73 | 1.7 | 1.7 | 0.00 | 0.00 | 0.46 | 79 | 1009.5 |
| 20260509054158 | 87 | 97 | 2.6 | 2.6 | 0.00 | 0.00 | 0.46 | 80 | 1009.5 |
| 20260509053656 | 87 | 75 | 1.7 | 1.7 | 0.00 | 0.00 | 0.46 | 80 | 1009.6 |
| 20260509053156 | 87 | 96 | 1.7 | 2.6 | 0.00 | 0.00 | 0.46 | 80 | 1009.7 |
| 20260509052656 | 87 | 88 | 3.5 | 6.1 | 0.00 | 0.00 | 0.46 | 80 | 1009.6 |
| 20260509052156 | 87 | 113 | 1.7 | 1.7 | 0.00 | 0.00 | 0.46 | 81 | 1009.6 |
| 20260509051656 | 87 | 197 | 0.9 | 1.7 | 0.00 | 0.00 | 0.46 | 81 | 1009.6 |
| 20260509051156 | 87 | 155 | 1.7 | 1.7 | 0.00 | 0.00 | 0.46 | 81 | 1009.8 |
| 20260509050656 | 86 | 213 | 1.7 | 2.6 | 0.00 | 0.00 | 0.46 | 82 | 1009.9 |
| 20260509050156 | 86 | 212 | 1.7 | 2.6 | 0.00 | 0.00 | 0.46 | 83 | 1009.8 |
| 20260509045656 | 85 | 207 | 1.7 | 4.3 | 0.00 | 0.00 | 0.46 | 83 | 1009.8 |
| 20260509045156 | 85 | 287 | 1.7 | 3.5 | 0.00 | 0.00 | 0.46 | 83 | 1009.7 |
| 20260509044656 | 84 | 207 | 4.3 | 7.0 | 0.00 | 0.00 | 0.46 | 83 | 1009.6 |
| 20260509044156 | 84 | 94 | 1.7 | 3.5 | 0.00 | 0.00 | 0.46 | 85 | 1009.6 |
| 20260509043656 | 84 | 188 | 2.6 | 3.5 | 0.00 | 0.00 | 0.46 | 87 | 1009.6 |
| 20260509043156 | 84 | 173 | 1.7 | 2.6 | 0.00 | 0.00 | 0.46 | 89 | 1009.7 |
| 20260509042657 | 83 | 224 | 1.7 | 4.3 | 0.00 | 0.00 | 0.46 | 89 | 1009.8 |
| 20260509042156 | 83 | 173 | 1.7 | 2.6 | 0.00 | 0.00 | 0.46 | 89 | 1009.9 |
| 20260509041656 | 83 | 114 | 1.7 | 1.7 | 0.00 | 0.00 | 0.46 | 89 | 1010.0 |
| 20260509041156 | 82 | 212 | 0.9 | 0.9 | 0.00 | 0.00 | 0.46 | 91 | 1010.0 |
| 20260509040656 | 82 | 70 | 1.7 | 2.6 | 0.00 | 0.00 | 0.46 | 91 | 1010.1 |
| 20260509040156 | 82 | 62 | 1.7 | 1.7 | 0.00 | 0.00 | 0.46 | 93 | 1010.1 |
| 20260509035656 | 81 | 357 | 1.7 | 1.7 | 0.00 | 0.00 | 0.46 | 93 | 1010.0 |
| 20260509035156 | 80 | 103 | 0.9 | 1.7 | 0.00 | 0.00 | 0.46 | 94 | 1010.0 |
| 20260509034656 | 80 | 99 | 1.7 | 1.7 | 0.00 | 0.00 | 0.46 | 95 | 1009.9 |
| 20260509034156 | 80 | 78 | 1.7 | 1.7 | 0.00 | 0.00 | 0.46 | 95 | 1009.8 |
| 20260509033656 | 79 | 351 | 0.9 | 0.9 | 0.00 | 0.00 | 0.46 | 96 | 1009.7 |
| 20260509033159 | 79 | 77 | 1.7 | 2.6 | 0.00 | 0.00 | 0.46 | 96 | 1009.6 |
| 20260509032656 | 79 | 85 | 2.6 | 3.5 | 0.01 | 0.00 | 0.46 | 96 | 1009.6 |
| 20260509032156 | 79 | 53 | 1.7 | 1.7 | 0.03 | 0.00 | 0.46 | 97 | 1009.4 |
| 20260509031656 | 79 | 101 | 1.7 | 1.7 | 0.03 | 0.00 | 0.46 | 97 | 1009.3 |
| 20260509031156 | 79 | 85 | 1.7 | 2.6 | 0.04 | 0.00 | 0.46 | 97 | 1009.3 |
| 20260509030656 | 79 | 136 | 0.9 | 1.7 | 0.04 | 0.00 | 0.46 | 97 | 1009.2 |
| 20260509030156 | 79 | 26 | 0.9 | 0.9 | 0.16 | 0.00 | 0.46 | 97 | 1009.2 |
| 20260509025656 | 80 | 356 | 0.9 | 1.7 | 0.16 | 0.00 | 0.46 | 97 | 1009.1 |
| 20260509025156 | 80 | 12 | 0.9 | 1.7 | 0.16 | 0.00 | 0.46 | 97 | 1009.2 |
| 20260509024656 | 80 | 355 | 0.9 | 1.7 | 0.16 | 0.00 | 0.46 | 97 | 1009.3 |
| 20260509024156 | 80 | 102 | 0.0 | 0.9 | 0.16 | 0.00 | 0.46 | 97 | 1009.4 |
| 20260509023656 | 79 | 283 | 0.9 | 0.9 | 0.15 | 0.00 | 0.46 | 97 | 1009.3 |
| 20260509023156 | 79 | 266 | 0.9 | 1.7 | 0.15 | 0.00 | 0.46 | 97 | 1009.4 |
| 20260509022656 | 79 | 337 | 1.7 | 1.7 | 0.15 | 0.00 | 0.46 | 97 | 1009.7 |
| 20260509022157 | 79 | 313 | 1.7 | 1.7 | 0.12 | 0.00 | 0.45 | 97 | 1009.7 |
| 20260509021656 | 79 | 359 | 0.9 | 1.7 | 0.12 | 0.00 | 0.45 | 97 | 1009.6 |
| 20260509021156 | 79 | 0 | 0.9 | 1.7 | 0.00 | 0.00 | 0.45 | 97 | 1009.6 |
| 20260509020656 | 79 | 307 | 0.9 | 1.7 | 0.00 | 0.00 | 0.42 | 97 | 1009.5 |
| 20260509020156 | 79 | 238 | 0.9 | 0.9 | 0.00 | 0.00 | 0.42 | 97 | 1009.4 |
| 20260509015656 | 79 | 111 | 1.7 | 1.7 | 0.00 | 0.00 | 0.30 | 97 | 1009.4 |
| 20260509015156 | 79 | 32 | 0.9 | 1.7 | 0.00 | 0.00 | 0.30 | 97 | 1009.0 |
| 20260509014656 | 79 | 208 | 1.7 | 2.6 | 0.00 | 0.00 | 0.30 | 97 | 1009.0 |
| 20260509014156 | 79 | 268 | 0.9 | 0.9 | 0.00 | 0.00 | 0.30 | 97 | 1008.9 |
| 20260509013656 | 79 | 260 | 0.9 | 1.7 | 0.00 | 0.00 | 0.30 | 97 | 1008.8 |
| 20260509013156 | 79 | 246 | 1.7 | 1.7 | 0.00 | 0.00 | 0.30 | 97 | 1008.7 |
| 20260509012656 | 79 | 263 | 1.7 | 1.7 | 0.00 | 0.00 | 0.30 | 97 | 1008.5 |
| 20260509012157 | 79 | 232 | 0.9 | 0.9 | 0.00 | 0.00 | 0.30 | 97 | 1008.4 |
| 20260509011656 | 79 | 182 | 0.9 | 1.7 | 0.00 | 0.00 | 0.30 | 97 | 1008.2 |
| 20260509011157 | 79 | 258 | 0.9 | 1.7 | 0.00 | 0.00 | 0.30 | 97 | 1008.2 |
| 20260509010658 | 79 | 237 | 0.9 | 1.7 | 0.00 | 0.00 | 0.30 | 97 | 1008.1 |
| 20260509010156 | 79 | 212 | 1.7 | 1.7 | 0.00 | 0.00 | 0.30 | 97 | 1008.0 |
| 20260509005657 | 79 | 302 | 0.9 | 1.7 | 0.00 | 0.00 | 0.30 | 97 | 1007.9 |
| 20260509005156 | 79 | 229 | 1.7 | 2.6 | 0.00 | 0.00 | 0.30 | 97 | 1007.9 |
| 20260509004656 | 79 | 198 | 1.7 | 1.7 | 0.00 | 0.00 | 0.30 | 97 | 1007.8 |
| 20260509004156 | 79 | 229 | 1.7 | 1.7 | 0.00 | 0.00 | 0.30 | 97 | 1007.7 |
| 20260509003656 | 79 | 234 | 1.7 | 1.7 | 0.00 | 0.00 | 0.30 | 97 | 1007.6 |
| 20260509003157 | 79 | 209 | 1.7 | 1.7 | 0.00 | 0.00 | 0.30 | 96 | 1007.5 |
| 20260509002656 | 80 | 206 | 0.9 | 1.7 | 0.06 | 0.00 | 0.30 | 96 | 1007.4 |
| 20260509002156 | 80 | 217 | 1.7 | 1.7 | 0.06 | 0.00 | 0.30 | 96 | 1007.4 |
| 20260509001657 | 80 | 197 | 1.7 | 1.7 | 0.30 | 0.00 | 0.30 | 96 | 1007.3 |
| 20260509001156 | 80 | 217 | 0.9 | 1.7 | 0.30 | 0.00 | 0.30 | 96 | 1007.1 |
| 20260509000656 | 80 | 206 | 1.7 | 1.7 | 0.30 | 0.00 | 0.30 | 96 | 1007.1 |
| 20260509000156 | 80 | 207 | 2.6 | 2.6 | 0.30 | 0.00 | 0.30 | 96 | 1007.1 |
| 20260508235657 | 80 | 217 | 1.7 | 1.7 | 0.30 | 0.00 | 0.30 | 95 | 1007.2 |
| 20260508235158 | 80 | 237 | 0.9 | 1.7 | 0.30 | 0.00 | 0.30 | 95 | 1007.2 |
| 20260508234657 | 80 | 261 | 0.9 | 1.7 | 0.30 | 0.00 | 0.30 | 95 | 1007.2 |
| 20260508234156 | 80 | 212 | 1.7 | 1.7 | 0.30 | 0.00 | 0.30 | 95 | 1007.1 |
| 20260508233656 | 80 | 232 | 1.7 | 1.7 | 0.30 | 0.00 | 0.30 | 94 | 1007.2 |
| 20260508233156 | 80 | 207 | 1.7 | 1.7 | 0.30 | 0.00 | 0.30 | 94 | 1007.3 |
| 20260508232656 | 80 | 223 | 1.7 | 1.7 | 0.24 | 0.00 | 0.30 | 94 | 1007.3 |
| 20260508232156 | 81 | 249 | 0.9 | 1.7 | 0.24 | 0.00 | 0.30 | 93 | 1007.3 |
| 20260508231657 | 81 | 210 | 1.7 | 2.6 | 0.01 | 0.00 | 0.30 | 93 | 1007.4 |
| 20260508231156 | 81 | 341 | 1.7 | 1.7 | 0.00 | 0.00 | 0.24 | 92 | 1007.5 |
| 20260508230656 | 82 | 80 | 1.7 | 1.7 | 0.00 | 0.00 | 0.01 | 90 | 1007.4 |
| 20260508230156 | 82 | 107 | 0.9 | 0.9 | 0.00 | 0.00 | 0.00 | 89 | 1007.2 |
| 20260508225656 | 82 | 37 | 0.0 | 0.9 | 0.00 | 0.00 | 0.00 | 89 | 1007.1 |
| 20260508225201 | 82 | 28 | 0.9 | 1.7 | 0.00 | 0.00 | 0.00 | 88 | 1007.1 |
| 20260508224656 | 82 | 75 | 0.0 | 0.9 | 0.00 | 0.00 | 0.00 | 87 | 1006.9 |
| 20260508224156 | 82 | 328 | 0.9 | 0.9 | 0.00 | 0.00 | 0.00 | 86 | 1006.9 |
| 20260508223657 | 82 | 73 | 0.9 | 0.9 | 0.00 | 0.00 | 0.00 | 86 | 1006.9 |
| 20260508223157 | 82 | 0 | 0.9 | 1.7 | 0.00 | 0.00 | 0.00 | 86 | 1006.8 |
| 20260508222656 | 82 | 44 | 0.9 | 0.9 | 0.00 | 0.00 | 0.00 | 87 | 1006.9 |
| 20260508222157 | 82 | 34 | 1.7 | 1.7 | 0.00 | 0.00 | 0.00 | 87 | 1006.8 |
| 20260508221656 | 82 | 52 | 0.9 | 0.9 | 0.00 | 0.00 | 0.00 | 87 | 1006.8 |
| 20260508221156 | 82 | 63 | 0.9 | 0.9 | 0.00 | 0.00 | 0.00 | 87 | 1006.8 |
| 20260508220656 | 82 | 17 | 0.9 | 0.9 | 0.00 | 0.00 | 0.00 | 87 | 1006.8 |
| 20260508220156 | 82 | 27 | 0.9 | 1.7 | 0.00 | 0.00 | 0.00 | 87 | 1006.8 |
| 20260508215656 | 82 | 32 | 0.9 | 1.7 | 0.00 | 0.00 | 0.00 | 87 | 1006.8 |
| 20260508215158 | 82 | 49 | 0.9 | 0.9 | 0.00 | 0.00 | 0.00 | 87 | 1006.7 |
| 20260508214656 | 82 | 44 | 0.9 | 1.7 | 0.00 | 0.00 | 0.00 | 87 | 1006.7 |
| 20260508214156 | 82 | 104 | 0.0 | 1.7 | 0.00 | 0.00 | 0.00 | 87 | 1006.6 |
| 20260508213656 | 82 | 45 | 0.9 | 1.7 | 0.00 | 0.00 | 0.00 | 87 | 1006.6 |
| 20260508213156 | 82 | 39 | 0.9 | 1.7 | 0.00 | 0.00 | 0.00 | 87 | 1006.5 |
| 20260508212656 | 82 | 52 | 0.9 | 1.7 | 0.00 | 0.00 | 0.00 | 87 | 1006.5 |
| 20260508212156 | 82 | 60 | 0.9 | 1.7 | 0.00 | 0.00 | 0.00 | 87 | 1006.5 |
| 20260508211656 | 82 | 35 | 0.0 | 0.9 | 0.00 | 0.00 | 0.00 | 87 | 1006.7 |
| 20260508211157 | 82 | 44 | 0.9 | 1.7 | 0.00 | 0.00 | 0.00 | 87 | 1006.7 |
| 20260508210656 | 82 | 66 | 0.9 | 1.7 | 0.00 | 0.00 | 0.00 | 87 | 1006.7 |
| 20260508210156 | 82 | 21 | 0.9 | 1.7 | 0.00 | 0.00 | 0.00 | 87 | 1006.7 |
| 20260508205656 | 82 | 70 | 0.0 | 0.9 | 0.00 | 0.00 | 0.00 | 87 | 1006.8 |
| 20260508205156 | 83 | 75 | 0.9 | 0.9 | 0.00 | 0.00 | 0.00 | 87 | 1006.8 |
| 20260508204656 | 83 | 29 | 0.9 | 1.7 | 0.00 | 0.00 | 0.00 | 87 | 1006.8 |
| 20260508204157 | 83 | 56 | 0.9 | 1.7 | 0.00 | 0.00 | 0.00 | 87 | 1006.9 |
| 20260508203657 | 83 | 37 | 0.9 | 1.7 | 0.00 | 0.00 | 0.00 | 87 | 1007.0 |
| 20260508203157 | 83 | 43 | 0.9 | 1.7 | 0.00 | 0.00 | 0.00 | 87 | 1007.0 |
| 20260508202656 | 83 | 40 | 0.9 | 0.9 | 0.00 | 0.00 | 0.00 | 87 | 1007.0 |
| 20260508202157 | 83 | 15 | 0.9 | 1.7 | 0.00 | 0.00 | 0.00 | 87 | 1007.1 |
| 20260508201656 | 83 | 59 | 0.9 | 1.7 | 0.00 | 0.00 | 0.00 | 86 | 1007.2 |
| 20260508201156 | 83 | 54 | 0.9 | 0.9 | 0.00 | 0.00 | 0.00 | 86 | 1007.3 |
| 20260508200656 | 83 | 23 | 0.9 | 0.9 | 0.00 | 0.00 | 0.00 | 86 | 1007.4 |
| 20260508200156 | 83 | 13 | 0.9 | 0.9 | 0.00 | 0.00 | 0.00 | 86 | 1007.4 |
| 20260508195657 | 83 | 15 | 0.9 | 0.9 | 0.00 | 0.00 | 0.00 | 86 | 1007.4 |
| 20260508195156 | 83 | 72 | 0.9 | 1.7 | 0.00 | 0.00 | 0.00 | 85 | 1007.4 |
| 20260508194656 | 83 | 53 | 0.9 | 1.7 | 0.00 | 0.00 | 0.00 | 85 | 1007.6 |
| 20260508194156 | 83 | 50 | 0.9 | 1.7 | 0.00 | 0.00 | 0.00 | 85 | 1007.6 |
| 20260508193656 | 83 | 33 | 0.9 | 0.9 | 0.00 | 0.00 | 0.00 | 85 | 1007.7 |
| 20260508193156 | 83 | 45 | 0.0 | 1.7 | 0.00 | 0.00 | 0.00 | 85 | 1007.9 |
| 20260508192657 | 83 | 55 | 0.0 | 0.9 | 0.00 | 0.00 | 0.00 | 84 | 1008.0 |
| 20260508192156 | 83 | 62 | 0.9 | 1.7 | 0.00 | 0.00 | 0.00 | 84 | 1008.1 |
| 20260508191657 | 84 | 60 | 0.9 | 1.7 | 0.00 | 0.00 | 0.00 | 84 | 1008.1 |
| 20260508191156 | 84 | 23 | 0.9 | 1.7 | 0.00 | 0.00 | 0.00 | 83 | 1008.2 |
| 20260508190657 | 84 | 51 | 0.9 | 1.7 | 0.00 | 0.00 | 0.00 | 83 | 1008.2 |
| 20260508190156 | 84 | 49 | 0.9 | 1.7 | 0.00 | 0.00 | 0.00 | 83 | 1008.3 |
| 20260508185656 | 84 | 310 | 0.9 | 1.7 | 0.00 | 0.00 | 0.00 | 82 | 1008.4 |
| 20260508185156 | 84 | 359 | 0.9 | 1.7 | 0.00 | 0.00 | 0.00 | 82 | 1008.4 |
| 20260508184656 | 84 | 35 | 0.9 | 1.7 | 0.00 | 0.00 | 0.00 | 82 | 1008.4 |
| 20260508184157 | 84 | 54 | 0.9 | 1.7 | 0.00 | 0.00 | 0.00 | 82 | 1008.3 |
| 20260508183656 | 84 | 54 | 0.9 | 1.7 | 0.00 | 0.00 | 0.00 | 82 | 1008.3 |
| 20260508183157 | 84 | 358 | 0.0 | 0.9 | 0.00 | 0.00 | 0.00 | 82 | 1008.3 |
| 20260508182656 | 84 | 122 | 0.9 | 1.7 | 0.00 | 0.00 | 0.10 | 82 | 1008.4 |
| 20260508182156 | 84 | 65 | 0.9 | 1.7 | 0.00 | 0.00 | 0.10 | 82 | 1008.6 |
| 20260508181657 | 84 | 19 | 0.9 | 1.7 | 0.00 | 0.00 | 0.10 | 82 | 1008.6 |
| 20260508181157 | 84 | 353 | 1.7 | 1.7 | 0.00 | 0.00 | 0.10 | 81 | 1008.6 |
| 20260508180656 | 84 | 62 | 0.9 | 0.9 | 0.00 | 0.00 | 0.10 | 81 | 1008.7 |
| 20260508180157 | 84 | 117 | 0.9 | 1.7 | 0.00 | 0.00 | 0.10 | 81 | 1008.7 |
| 20260508175656 | 84 | 100 | 0.9 | 2.6 | 0.00 | 0.00 | 0.10 | 81 | 1008.7 |
| 20260508175156 | 84 | 91 | 1.7 | 2.6 | 0.00 | 0.00 | 0.10 | 81 | 1008.8 |
| 20260508174657 | 85 | 91 | 1.7 | 2.6 | 0.00 | 0.00 | 0.10 | 81 | 1008.9 |
| 20260508174158 | 85 | 139 | 1.7 | 1.7 | 0.00 | 0.00 | 0.10 | 81 | 1008.9 |
| 20260508173656 | 85 | 126 | 0.9 | 1.7 | 0.00 | 0.00 | 0.10 | 80 | 1008.9 |
| 20260508173156 | 85 | 109 | 1.7 | 3.5 | 0.00 | 0.00 | 0.10 | 80 | 1008.9 |
| 20260508172657 | 85 | 96 | 1.7 | 3.5 | 0.00 | 0.00 | 0.10 | 80 | 1009.0 |
| 20260508172157 | 85 | 98 | 1.7 | 2.6 | 0.00 | 0.00 | 0.10 | 80 | 1009.0 |
| 20260508171656 | 85 | 75 | 0.9 | 1.7 | 0.00 | 0.00 | 0.10 | 79 | 1009.0 |
| 20260508171156 | 85 | 90 | 0.9 | 1.7 | 0.00 | 0.00 | 0.10 | 79 | 1009.1 |
| 20260508170657 | 85 | 93 | 0.9 | 1.7 | 0.00 | 0.00 | 0.10 | 79 | 1009.1 |
| 20260508170156 | 85 | 104 | 1.7 | 2.6 | 0.00 | 0.00 | 0.10 | 79 | 1009.1 |
| 20260508165656 | 85 | 48 | 0.0 | 0.9 | 0.00 | 0.00 | 0.10 | 79 | 1009.1 |
| 20260508165203 | 85 | 140 | 0.9 | 1.7 | 0.00 | 0.00 | 0.10 | 79 | 1009.0 |
| 20260508164659 | 85 | 93 | 1.7 | 1.7 | 0.00 | 0.00 | 0.10 | 78 | 1009.0 |
| 20260508164157 | 85 | 112 | 0.9 | 1.7 | 0.00 | 0.00 | 0.10 | 79 | 1008.9 |
| 20260508163656 | 85 | 160 | 0.9 | 2.6 | 0.00 | 0.00 | 0.10 | 79 | 1008.9 |
| 20260508163157 | 85 | 111 | 0.9 | 2.6 | 0.00 | 0.00 | 0.10 | 79 | 1008.9 |
| 20260508162657 | 85 | 130 | 0.0 | 0.9 | 0.00 | 0.00 | 0.10 | 79 | 1008.8 |
| 20260508162156 | 85 | 118 | 0.9 | 1.7 | 0.00 | 0.00 | 0.10 | 79 | 1008.8 |
| 20260508161657 | 85 | 107 | 1.7 | 2.6 | 0.00 | 0.00 | 0.10 | 79 | 1008.8 |
| 20260508161156 | 85 | 98 | 0.9 | 1.7 | 0.00 | 0.00 | 0.10 | 79 | 1008.8 |
| 20260508160656 | 85 | 156 | 1.7 | 2.6 | 0.00 | 0.00 | 0.10 | 80 | 1008.9 |
| 20260508160204 | 85 | 91 | 0.9 | 1.7 | 0.00 | 0.00 | 0.10 | 80 | 1008.9 |
| 20260508155657 | 85 | 54 | 0.0 | 1.7 | 0.00 | 0.00 | 0.10 | 80 | 1008.9 |
| 20260508155157 | 84 | 88 | 1.7 | 2.6 | 0.00 | 0.00 | 0.10 | 80 | 1008.8 |
| 20260508154657 | 84 | 130 | 0.9 | 1.7 | 0.00 | 0.00 | 0.10 | 81 | 1008.8 |
| 20260508153751 | 84 | 81 | 0.9 | 0.9 | 0.00 | 0.00 | 0.10 | 81 | 1008.8 |
| 20260508153156 | 84 | 83 | 0.9 | 2.6 | 0.00 | 0.00 | 0.10 | 81 | 1008.7 |
| 20260508152657 | 84 | 93 | 1.7 | 2.6 | 0.00 | 0.00 | 0.10 | 81 | 1008.7 |
| 20260508152157 | 84 | 20 | 0.0 | 0.9 | 0.00 | 0.00 | 0.10 | 82 | 1008.6 |
| 20260508151656 | 84 | 154 | 0.9 | 1.7 | 0.00 | 0.00 | 0.10 | 82 | 1008.6 |
| 20260508151200 | 84 | 131 | 1.7 | 1.7 | 0.00 | 0.00 | 0.10 | 82 | 1008.5 |
| 20260508150657 | 85 | 123 | 1.7 | 2.6 | 0.00 | 0.00 | 0.10 | 82 | 1008.4 |
| 20260508150156 | 85 | 162 | 1.7 | 3.5 | 0.00 | 0.00 | 0.10 | 82 | 1008.5 |
| 20260508145656 | 85 | 107 | 0.9 | 1.7 | 0.00 | 0.00 | 0.10 | 81 | 1008.5 |
| 20260508145156 | 85 | 152 | 1.7 | 2.6 | 0.00 | 0.00 | 0.10 | 81 | 1008.5 |
| 20260508144659 | 85 | 83 | 0.9 | 2.6 | 0.00 | 0.00 | 0.10 | 81 | 1008.4 |
| 20260508144156 | 85 | 128 | 1.7 | 3.5 | 0.00 | 0.00 | 0.10 | 81 | 1008.4 |
| 20260508143657 | 85 | 163 | 0.9 | 3.5 | 0.00 | 0.00 | 0.10 | 81 | 1008.4 |
| 20260508143157 | 85 | 113 | 0.9 | 2.6 | 0.00 | 0.00 | 0.10 | 82 | 1008.3 |
| 20260508142658 | 85 | 137 | 0.9 | 1.7 | 0.00 | 0.00 | 0.10 | 82 | 1008.2 |
| 20260508142157 | 85 | 97 | 1.7 | 3.5 | 0.00 | 0.00 | 0.10 | 82 | 1008.1 |
| 20260508141657 | 85 | 107 | 1.7 | 3.5 | 0.00 | 0.00 | 0.10 | 81 | 1008.1 |
| 20260508141157 | 85 | 126 | 0.9 | 2.6 | 0.00 | 0.00 | 0.10 | 81 | 1008.0 |
| 20260508140657 | 85 | 102 | 1.7 | 2.6 | 0.00 | 0.00 | 0.10 | 79 | 1008.0 |
| 20260508140159 | 85 | 113 | 1.7 | 3.5 | 0.00 | 0.00 | 0.10 | 79 | 1007.9 |
| 20260508135701 | 85 | 111 | 1.7 | 2.6 | 0.00 | 0.00 | 0.10 | 80 | 1007.8 |
| 20260508135157 | 85 | 75 | 1.7 | 3.5 | 0.00 | 0.00 | 0.10 | 80 | 1007.8 |
| 20260508134657 | 85 | 128 | 2.6 | 4.3 | 0.00 | 0.00 | 0.10 | 80 | 1007.7 |
| 20260508134156 | 85 | 95 | 1.7 | 3.5 | 0.00 | 0.00 | 0.10 | 79 | 1007.7 |
| 20260508133657 | 85 | 106 | 1.7 | 5.2 | 0.00 | 0.00 | 0.10 | 80 | 1007.6 |
| 20260508133156 | 85 | 111 | 4.3 | 6.1 | 0.00 | 0.00 | 0.10 | 79 | 1007.5 |
| 20260508132657 | 85 | 122 | 1.7 | 3.5 | 0.00 | 0.00 | 0.10 | 78 | 1007.5 |
| 20260508132157 | 85 | 97 | 1.7 | 3.5 | 0.00 | 0.00 | 0.10 | 78 | 1007.5 |
| 20260508131657 | 85 | 109 | 1.7 | 4.3 | 0.00 | 0.00 | 0.10 | 77 | 1007.5 |
| 20260508131200 | 85 | 95 | 2.6 | 5.2 | 0.00 | 0.00 | 0.10 | 77 | 1007.5 |
| 20260508130657 | 85 | 96 | 1.7 | 3.5 | 0.00 | 0.00 | 0.10 | 77 | 1007.4 |
| 20260508130157 | 85 | 72 | 1.7 | 5.2 | 0.00 | 0.00 | 0.10 | 77 | 1007.4 |
| 20260508125657 | 85 | 99 | 3.5 | 5.2 | 0.00 | 0.00 | 0.10 | 78 | 1007.3 |
| 20260508125157 | 85 | 96 | 2.6 | 5.2 | 0.00 | 0.00 | 0.10 | 79 | 1007.3 |
| 20260508124656 | 85 | 76 | 2.6 | 5.2 | 0.00 | 0.00 | 0.10 | 79 | 1007.3 |
| 20260508124156 | 86 | 90 | 1.7 | 4.3 | 0.00 | 0.00 | 0.10 | 79 | 1007.3 |
| 20260508123656 | 86 | 103 | 2.6 | 5.2 | 0.00 | 0.00 | 0.10 | 79 | 1007.1 |
| 20260508123157 | 86 | 93 | 3.5 | 5.2 | 0.00 | 0.00 | 0.10 | 79 | 1007.1 |
| 20260508122700 | 86 | 80 | 1.7 | 3.5 | 0.00 | 0.00 | 0.10 | 78 | 1007.0 |
| 20260508122157 | 86 | 98 | 2.6 | 4.3 | 0.00 | 0.00 | 0.10 | 78 | 1007.0 |
| 20260508121657 | 86 | 245 | 1.7 | 4.3 | 0.00 | 0.00 | 0.10 | 79 | 1006.9 |
| 20260508121157 | 86 | 75 | 2.6 | 6.1 | 0.00 | 0.00 | 0.10 | 78 | 1006.8 |
| 20260508120657 | 86 | 108 | 1.7 | 3.5 | 0.00 | 0.00 | 0.10 | 78 | 1006.8 |
| 20260508120157 | 86 | 101 | 1.7 | 3.5 | 0.00 | 0.00 | 0.10 | 78 | 1006.7 |
| 20260508115656 | 86 | 83 | 3.5 | 7.0 | 0.00 | 0.00 | 0.10 | 76 | 1006.7 |
| 20260508115157 | 86 | 87 | 1.7 | 3.5 | 0.00 | 0.00 | 0.10 | 76 | 1006.7 |
| 20260508114656 | 86 | 111 | 3.5 | 6.1 | 0.00 | 0.00 | 0.10 | 75 | 1006.6 |
| 20260508114157 | 87 | 102 | 3.5 | 5.2 | 0.00 | 0.00 | 0.10 | 74 | 1006.6 |
| 20260508113656 | 87 | 55 | 1.7 | 4.3 | 0.00 | 0.00 | 0.10 | 73 | 1006.5 |
| 20260508113158 | 87 | 110 | 2.6 | 3.5 | 0.00 | 0.00 | 0.10 | 72 | 1006.6 |
| 20260508112656 | 87 | 113 | 2.6 | 6.1 | 0.00 | 0.00 | 0.10 | 71 | 1006.5 |
| 20260508112157 | 87 | 95 | 1.7 | 4.3 | 0.00 | 0.00 | 0.10 | 71 | 1006.5 |
| 20260508111701 | 88 | 88 | 1.7 | 3.5 | 0.00 | 0.00 | 0.10 | 69 | 1006.6 |
| 20260508111156 | 89 | 80 | 2.6 | 4.3 | 0.00 | 0.00 | 0.10 | 67 | 1006.5 |
| 20260508110657 | 89 | 105 | 3.5 | 6.1 | 0.00 | 0.00 | 0.10 | 66 | 1006.5 |
| 20260508110156 | 89 | 141 | 1.7 | 2.6 | 0.00 | 0.00 | 0.10 | 65 | 1006.5 |
| 20260508105656 | 89 | 2 | 2.6 | 4.3 | 0.00 | 0.00 | 0.10 | 64 | 1006.4 |
| 20260508105159 | 89 | 137 | 1.7 | 2.6 | 0.00 | 0.00 | 0.10 | 63 | 1006.3 |
| 20260508104658 | 89 | 97 | 1.7 | 6.1 | 0.00 | 0.00 | 0.10 | 63 | 1006.4 |
| 20260508104156 | 90 | 93 | 3.5 | 7.0 | 0.00 | 0.00 | 0.10 | 62 | 1006.4 |
| 20260508103656 | 90 | 91 | 4.3 | 7.8 | 0.00 | 0.00 | 0.10 | 61 | 1006.5 |
| 20260508103156 | 91 | 262 | 2.6 | 3.5 | 0.00 | 0.00 | 0.10 | 60 | 1006.5 |
| 20260508102656 | 90 | 101 | 1.7 | 3.5 | 0.00 | 0.00 | 0.10 | 61 | 1006.5 |
| 20260508102156 | 90 | 151 | 1.7 | 3.5 | 0.00 | 0.00 | 0.10 | 62 | 1006.6 |
| 20260508101656 | 90 | 357 | 2.6 | 5.2 | 0.00 | 0.00 | 0.10 | 62 | 1006.6 |
| 20260508101204 | 90 | 73 | 1.7 | 2.6 | 0.00 | 0.00 | 0.10 | 62 | 1006.6 |
| 20260508100659 | 89 | 113 | 2.6 | 4.3 | 0.00 | 0.00 | 0.10 | 64 | 1006.7 |
| 20260508100157 | 89 | 107 | 3.5 | 7.0 | 0.00 | 0.00 | 0.10 | 64 | 1006.6 |
| 20260508095657 | 89 | 85 | 2.6 | 5.2 | 0.00 | 0.00 | 0.10 | 64 | 1006.7 |
| 20260508095157 | 89 | 107 | 3.5 | 6.1 | 0.00 | 0.00 | 0.10 | 65 | 1006.6 |
| 20260508094656 | 89 | 56 | 2.6 | 5.2 | 0.00 | 0.00 | 0.10 | 64 | 1006.5 |
| 20260508094156 | 89 | 85 | 1.7 | 3.5 | 0.00 | 0.00 | 0.10 | 65 | 1006.5 |
| 20260508093659 | 89 | 113 | 4.3 | 8.7 | 0.00 | 0.00 | 0.10 | 65 | 1006.6 |
| 20260508093156 | 89 | 150 | 1.7 | 1.7 | 0.00 | 0.00 | 0.10 | 67 | 1006.7 |
| 20260508092656 | 89 | 81 | 3.5 | 6.1 | 0.00 | 0.00 | 0.10 | 67 | 1006.7 |
| 20260508092157 | 89 | 113 | 2.6 | 4.3 | 0.00 | 0.00 | 0.10 | 67 | 1006.7 |
| 20260508091657 | 88 | 110 | 3.5 | 4.3 | 0.00 | 0.00 | 0.10 | 69 | 1006.6 |
| 20260508091156 | 88 | 109 | 2.6 | 7.0 | 0.00 | 0.00 | 0.10 | 68 | 1006.7 |
| 20260508090656 | 87 | 99 | 2.6 | 5.2 | 0.00 | 0.00 | 0.10 | 70 | 1006.8 |
| 20260508090157 | 87 | 75 | 2.6 | 5.2 | 0.00 | 0.00 | 0.10 | 72 | 1006.8 |
| 20260508085657 | 87 | 93 | 2.6 | 5.2 | 0.00 | 0.00 | 0.10 | 72 | 1006.8 |
| 20260508085156 | 87 | 85 | 2.6 | 5.2 | 0.00 | 0.00 | 0.10 | 72 | 1006.7 |
| 20260508084656 | 87 | 100 | 1.7 | 3.5 | 0.00 | 0.00 | 0.10 | 72 | 1006.9 |
| 20260508084156 | 87 | 73 | 2.6 | 5.2 | 0.00 | 0.00 | 0.10 | 72 | 1007.0 |
| 20260508083657 | 87 | 91 | 2.6 | 7.0 | 0.00 | 0.00 | 0.10 | 73 | 1007.0 |
| 20260508082707 | 87 | 76 | 3.5 | 6.1 | 0.00 | 0.00 | 0.10 | 74 | 1007.0 |
| 20260508082157 | 87 | 102 | 1.7 | 2.6 | 0.00 | 0.00 | 0.10 | 75 | 1007.1 |
| 20260508081657 | 87 | 119 | 2.6 | 4.3 | 0.00 | 0.00 | 0.10 | 74 | 1007.3 |
| 20260508081200 | 87 | 88 | 2.6 | 5.2 | 0.00 | 0.00 | 0.10 | 74 | 1007.3 |
| 20260508080656 | 87 | 109 | 2.6 | 6.1 | 0.00 | 0.00 | 0.10 | 74 | 1007.3 |
| 20260508080157 | 87 | 91 | 3.5 | 6.1 | 0.00 | 0.00 | 0.10 | 74 | 1007.4 |
| 20260508075657 | 87 | 80 | 3.5 | 6.1 | 0.00 | 0.00 | 0.10 | 74 | 1007.4 |
| 20260508075156 | 87 | 86 | 2.6 | 4.3 | 0.00 | 0.00 | 0.10 | 73 | 1007.5 |
| 20260508074656 | 87 | 106 | 3.5 | 7.0 | 0.00 | 0.00 | 0.10 | 72 | 1007.6 |
| 20260508074156 | 87 | 119 | 3.5 | 4.3 | 0.00 | 0.00 | 0.10 | 76 | 1007.6 |
| 20260508073656 | 87 | 82 | 3.5 | 7.0 | 0.00 | 0.00 | 0.10 | 74 | 1007.6 |
| 20260508073156 | 87 | 112 | 2.6 | 4.3 | 0.00 | 0.00 | 0.10 | 76 | 1007.6 |
| 20260508072657 | 88 | 106 | 3.5 | 7.0 | 0.00 | 0.00 | 0.10 | 76 | 1007.7 |
| 20260508072156 | 87 | 187 | 1.7 | 3.5 | 0.00 | 0.00 | 0.10 | 77 | 1007.8 |
| 20260508071657 | 87 | 74 | 3.5 | 5.2 | 0.00 | 0.00 | 0.10 | 77 | 1008.0 |
| 20260508071157 | 87 | 57 | 2.6 | 7.0 | 0.00 | 0.00 | 0.10 | 77 | 1008.2 |
| 20260508070657 | 87 | 145 | 1.7 | 1.7 | 0.00 | 0.00 | 0.10 | 79 | 1008.3 |
| 20260508070157 | 86 | 106 | 2.6 | 5.2 | 0.00 | 0.00 | 0.10 | 79 | 1008.4 |
| 20260508065657 | 87 | 116 | 3.5 | 5.2 | 0.00 | 0.00 | 0.10 | 78 | 1008.6 |